ASTRA 1F

Last updated on Nov. 9, 2020, 6:17 a.m. UTC

1 23842U 96021A   20312.75299840 -.00000226  00000-0  00000-0 0  9990
2 23842   0.1836  85.1591 0002988 123.9510  67.6347  0.99119708 31805
UTC
Height (km)
Latitude
Longitude
Inclination
Orbital Period
UTC large
Height (km)
Speed (km/s)
/
Latitude / Longitude
Inclination (degrees)
Orbital Period (minutes)
Azimuth
Elevation
Range (km)
Doppler Factor
iOS Compass Heading
iOS Angle

Next 30 passes for location: Hong Kong

Rise time Rise Azimuth (degrees) Set time Set Azimuth (degrees) Duration Max altitude (degrees)

No matching passes for this satellites